Location: Newark
(44.6028°N, 124.0883°W)
Time: 09:55:32
(UTC+00:00)

Vanguard 1 - Pass Details

Date: 31 October 2019
Orbit: 652 x 3831 km, 34.2° (Epoch: 12 November)

Event Time Altitude Azimuth Distance (km) Brightness Sun altitude
Rises 06:38:25 0° 265° (W) 4,670 13.8 -54.9°
Enters shadow 06:41:33 - 252° (WSW) 4,207 13.4 -55.2°
Reaches altitude 10° 06:42:12 10° 249° (WSW) 4,139 - -55.2°
Maximum altitude 06:49:55 20° 207° (SSW) 4,194 - -56.0°
Drops below altitude 10° 07:00:45 10° 168° (SSE) 5,993 - -56.9°
Sets 07:08:14 0° 155° (SSE) 7,507 - -57.5°
